[[{"header":{"parameterUnit":"m.s-1","parameterCategory":1,"la1":30.2991,"la2":30.254,"lo1":-89.0895,"lo2":-89.0444,"dy":0.0017,"dx":0.0017,"nx":28,"ny":28,"refTime":"2024-11-29T03:00:00:Z","depth":0,"parameterNumber":2,"parameterNumberName":"U-component_of_WINDS"},"data":[0,0,0,0,0,0,0,0,0,0,0,0,0,0,0,0,0,0,0,0,0,0,0,0,0,0,0,0,0,0,0,0,0,0,0,0,0,0,0,0,0,0,0,0,0,0,0,0,0,0,0,0,0,0,0,0,0,0,-0.202,-0.202,0,-0.2044,-0.2044,-0.2044,-0.2013,-0.2012,-0.2011,-0.2009,-0.2037,-0.2039,-0.204,0,0,0,0,0,0,0,0,0,0,0,0,0,-0.1951,-0.1952,-0.202,-0.2021,-0.2021,-0.2044,-0.2044,-0.2044,-0.2013,-0.2012,-0.201,-0.2009,-0.2036,-0.2038,-0.2041,0,0,0,0,0,0,0,0,0,0,0,0,0,-0.1978,-0.1953,-0.202,-0.2008,-0.2007,-0.2044,-0.2044,-0.2044,-0.2013,-0.2012,-0.201,-0.2008,-0.2036,-0.2038,-0.2041,-0.2092,0,0,-0.2049,-0.205,0,0,0,0,0,0,0,0,-0.1977,-0.1981,-0.2009,-0.2009,-0.2008,-0.2023,-0.2029,-0.206,-0.2014,-0.2011,-0.2009,-0.2007,-0.2034,-0.2037,-0.2045,-0.2093,-0.2094,-0.2049,-0.2051,-0.2052,-0.2053,0,0,0,0,0,0,0,-0.1975,-0.198,-0.203,-0.201,-0.2009,-0.2002,-0.2004,-0.2035,-0.2032,-0.2011,-0.2009,-0.2012,-0.2033,-0.2043,-0.2045,-0.2095,-0.2049,-0.2052,-0.2053,-0.2054,-0.2185,-0.2187,0,0,0,0,0,0,-0.1974,-0.1978,-0.2029,-0.203,-0.1988,-0.2005,-0.2007,-0.202,-0.2032,-0.2032,-0.2013,-0.201,-0.2039,-0.2042,-0.2046,-0.2107,-0.2052,-0.2055,-0.2056,-0.2183,-0.2185,-0.2187,0,0,0,0,0,0,-0.1973,-0.1979,-0.2028,-0.2004,-0.2009,-0.2008,-0.2023,-0.2022,-0.2031,-0.2033,-0.2033,-0.2023,-0.2038,-0.2043,-0.208,-0.2107,-0.2056,-0.2058,-0.2181,-0.2184,-0.2186,-0.2228,0,0,0,0,0,0,-0.1971,-0.1979,-0.1998,-0.2004,-0.2011,-0.2061,-0.2025,-0.2023,-0.2035,-0.2031,-0.2042,-0.2042,-0.2037,-0.2076,-0.2083,-0.211,-0.206,-0.2179,-0.2182,-0.2186,-0.2224,-0.2232,-0.2239,0,0,0,0,0,-0.1969,-0.2009,-0.1999,-0.2005,-0.2034,-0.2063,-0.2066,-0.2058,-0.2037,-0.2057,-0.2058,-0.2042,-0.2103,-0.2081,-0.2088,-0.2116,-0.2177,-0.2181,-0.2185,-0.2221,-0.2231,-0.2238,0,0,0,0,0,0,-0.2007,-0.201,-0.1998,-0.2042,-0.2052,-0.2057,-0.2082,-0.2068,-0.2085,-0.2081,-0.2071,-0.2073,-0.2114,-0.2118,-0.2094,-0.2165,-0.2137,-0.2142,-0.2162,-0.217,-0.2177,-0.2176,-0.2063,0,0,0,0,0,-0.2021,-0.2043,-0.2044,-0.2083,-0.2088,-0.2084,-0.2096,-0.2088,-0.2099,-0.2103,-0.2107,-0.2119,-0.2141,-0.2155,-0.2175,-0.2224,-0.2226,-0.2247,-0.2254,-0.226,-0.2266,-0.2292,-0.2301,-0.2201,-0.2201,-0.2201,0,0,-0.2049,-0.2053,-0.2068,-0.209,-0.2097,-0.2121,-0.2088,-0.2115,-0.2133,-0.2108,-0.2144,-0.2147,-0.2159,-0.2203,-0.2222,-0.2208,-0.2293,-0.2265,-0.227,-0.2272,-0.2297,-0.2306,-0.2315,-0.2204,-0.2203,-0.2203,0,0,-0.2114,-0.2118,-0.2151,-0.2158,-0.2168,-0.2165,-0.2173,-0.2179,-0.218,-0.2216,-0.2197,-0.2218,-0.2256,-0.2265,-0.2275,-0.2341,-0.2327,-0.2348,-0.2386,-0.2411,-0.2419,-0.2426,-0.245,-0.2459,-0.2353,-0.2353,-0.2353,0,-0.2149,-0.2183,-0.217,-0.2198,-0.2208,-0.2185,-0.2218,-0.2226,-0.2243,-0.2251,-0.2234,-0.228,-0.2287,-0.2332,-0.2348,-0.2356,-0.2365,-0.2348,-0.2419,-0.2425,-0.2432,-0.2455,-0.2464,-0.2356,-0.2355,-0.2355,-0.2355,0,-0.2225,-0.2249,-0.2274,-0.229,-0.2303,-0.2333,-0.2326,-0.2341,-0.2331,-0.233,-0.2366,-0.2373,-0.2393,-0.2403,-0.2395,-0.2447,-0.2438,-0.242,-0.2391,-0.2444,-0.2466,-0.2474,-0.2359,-0.2358,-0.2358,-0.2357,0,0,-0.2318,-0.2323,-0.2333,-0.234,-0.2348,-0.2367,-0.2396,-0.2415,-0.2428,-0.244,-0.2465,-0.2496,-0.2479,-0.249,-0.2482,-0.2504,-0.2557,-0.2483,-0.2484,-0.2498,-0.2616,-0.2631,-0.2641,-0.2547,-0.2548,-0.2549,-0.2615,0,-0.2383,-0.2432,-0.2421,-0.247,-0.2493,-0.247,-0.2495,-0.2503,-0.2502,-0.2521,-0.252,-0.2543,-0.2518,-0.2525,-0.2545,-0.2546,-0.2581,-0.2541,-0.2571,-0.2572,-0.2571,-0.2652,-0.2668,-0.273,-0.2623,-0.2625,-0.2626,0,-0.2466,-0.2479,-0.2531,-0.2535,-0.2544,-0.2567,-0.2583,-0.2601,-0.261,-0.2607,-0.2619,-0.2606,-0.2635,-0.2604,-0.2645,-0.2618,-0.263,-0.2632,-0.2634,-0.2638,-0.2604,-0.266,-0.275,-0.2759,-0.2639,-0.2638,-0.2637,0,-0.253,-0.256,-0.2595,-0.2601,-0.2606,-0.2623,-0.2626,-0.2633,-0.2645,-0.2659,-0.2667,-0.2684,-0.2695,-0.2709,-0.2701,-0.2679,-0.2744,-0.2712,-0.2744,-0.2744,-0.276,-0.276,-0.2855,-0.2765,-0.2765,-0.2764,-0.2764,0,-0.2605,-0.2638,-0.2623,-0.2645,-0.2681,-0.2667,-0.2703,-0.2704,-0.271,-0.2731,-0.2712,-0.2733,-0.2721,-0.2741,-0.2735,-0.277,-0.2775,-0.2775,-0.2773,-0.2777,-0.2778,-0.2786,-0.2783,-0.2767,-0.2766,-0.2766,-0.2765,0,-0.2683,-0.2675,-0.2711,-0.2712,-0.2713,-0.274,-0.2741,-0.2762,-0.2758,-0.2786,-0.2791,-0.2786,-0.2809,-0.2802,-0.2826,-0.2822,-0.2867,-0.2859,-0.2864,-0.2863,-0.2896,-0.2893,-0.3001,-0.3015,-0.2914,-0.2915,-0.2916,0,-0.2733,-0.2757,-0.276,-0.2773,-0.2777,-0.2797,-0.2809,-0.2796,-0.2809,-0.2819,-0.2839,-0.2859,-0.2875,-0.2912,-0.2911,-0.2929,-0.2923,-0.2959,-0.2926,-0.2929,-0.2925,-0.2924,-0.2927,-0.2967,-0.2968,-0.2969,-0.2969,0,-0.2822,-0.2816,-0.2833,-0.2848,-0.2862,-0.2873,-0.2883,-0.2895,-0.2882,-0.2897,-0.2919,-0.2931,-0.2955,-0.2976,-0.2993,-0.2997,-0.2982,-0.2979,-0.2988,-0.2994,-0.2996,-0.2997,-0.2884,-0.2978,-0.2977,-0.2976,-0.2976,-0.2975,-0.2888,-0.2909,-0.2914,-0.2933,-0.2938,-0.2948,-0.2967,-0.2964,-0.2982,-0.3,-0.2991,-0.3017,-0.3024,-0.3044,-0.305,-0.3071,-0.3057,-0.3069,-0.3072,-0.3076,-0.3081,-0.2991,-0.3073,-0.3073,-0.3073,-0.3073,-0.3072,0,-0.2977,-0.2979,-0.2996,-0.301,-0.3025,-0.3007,-0.3017,-0.3031,-0.3053,-0.3061,-0.3076,-0.3101,-0.3121,-0.312,-0.3138,-0.3155,-0.3148,-0.316,-0.316,-0.3161,-0.3092,-0.3083,-0.3165,-0.3165,-0.3165,-0.3165,-0.3165,-0.3165,-0.3026,-0.306,-0.3054,-0.309,-0.3092,-0.3116,-0.3123,-0.3132,-0.3137,-0.3166,-0.3182,-0.318,-0.3185,-0.3203,-0.322,-0.3219,-0.3228,-0.3243,-0.324,-0.3175,-0.3166,-0.3157,-0.3149,-0.3244,-0.3244,-0.3308,-0.3309,-0.3309]},{"header":{"parameterUnit":"m.s-1","parameterCategory":1,"la1":30.2991,"la2":30.254,"lo1":-89.0895,"lo2":-89.0444,"dy":0.0017,"dx":0.0017,"nx":28,"ny":28,"refTime":"2024-11-29T03:00:00:Z","depth":0,"parameterNumber":3,"parameterNumberName":"V-component_of_WINDS"},"data":[0,0,0,0,0,0,0,0,0,0,0,0,0,0,0,0,0,0,0,0,0,0,0,0,0,0,0,0,0,0,0,0,0,0,0,0,0,0,0,0,0,0,0,0,0,0,0,0,0,0,0,0,0,0,0,0,0,0,-7.821,-7.8211,0,-7.8303,-7.8304,-7.8305,-7.8181,-7.8176,-7.8172,-7.8168,-7.8257,-7.8264,-7.827,0,0,0,0,0,0,0,0,0,0,0,0,0,-7.792,-7.7926,-7.821,-7.8211,-7.8212,-7.8303,-7.8304,-7.8305,-7.8182,-7.8176,-7.8171,-7.8166,-7.8255,-7.8263,-7.8271,0,0,0,0,0,0,0,0,0,0,0,0,0,-7.8033,-7.7928,-7.8209,-7.8162,-7.8158,-7.8302,-7.8304,-7.8305,-7.8183,-7.8176,-7.8169,-7.8163,-7.8253,-7.8262,-7.8272,-7.8466,0,0,-7.8302,-7.8306,0,0,0,0,0,0,0,0,-7.8026,-7.8043,-7.8167,-7.8165,-7.8162,-7.8223,-7.8234,-7.8359,-7.8184,-7.8173,-7.8168,-7.816,-7.8251,-7.8261,-7.8293,-7.847,-7.8474,-7.8303,-7.8309,-7.8313,-7.8316,0,0,0,0,0,0,0,-7.8019,-7.8039,-7.8246,-7.8169,-7.8166,-7.8134,-7.8142,-7.8257,-7.8248,-7.8174,-7.8165,-7.8178,-7.8248,-7.8283,-7.8294,-7.8475,-7.8302,-7.8311,-7.8317,-7.8321,-7.8817,-7.8823,0,0,0,0,0,0,-7.8017,-7.8033,-7.8243,-7.8249,-7.8076,-7.8144,-7.8154,-7.821,-7.8247,-7.8246,-7.8184,-7.8172,-7.827,-7.8282,-7.8296,-7.8526,-7.8313,-7.8322,-7.8328,-7.8809,-7.8818,-7.8826,0,0,0,0,0,0,-7.8012,-7.8037,-7.8239,-7.8139,-7.8162,-7.8156,-7.8221,-7.8216,-7.8251,-7.8254,-7.8251,-7.8222,-7.8265,-7.8283,-7.8425,-7.8528,-7.8326,-7.8335,-7.8801,-7.8812,-7.8822,-7.8988,0,0,0,0,0,0,-7.8004,-7.8036,-7.8111,-7.8141,-7.8168,-7.8369,-7.8227,-7.8222,-7.8269,-7.8254,-7.8289,-7.8289,-7.8261,-7.8411,-7.8435,-7.8538,-7.8343,-7.8791,-7.8806,-7.8819,-7.8973,-7.9003,-7.9029,0,0,0,0,0,-7.7994,-7.8152,-7.8115,-7.8141,-7.8262,-7.8375,-7.839,-7.8357,-7.8277,-7.8352,-7.8354,-7.8287,-7.8513,-7.8427,-7.8452,-7.856,-7.8785,-7.8802,-7.8818,-7.8961,-7.8998,-7.9028,0,0,0,0,0,0,-7.8132,-7.8156,-7.8115,-7.8288,-7.8331,-7.8354,-7.8447,-7.8397,-7.8461,-7.8445,-7.8399,-7.8408,-7.8561,-7.8574,-7.8478,-7.8749,-7.8635,-7.8658,-7.8736,-7.877,-7.8798,-7.8791,-7.8351,0,0,0,0,0,-7.8183,-7.8275,-7.8289,-7.8441,-7.8465,-7.8453,-7.8501,-7.8472,-7.8513,-7.853,-7.8543,-7.8584,-7.8664,-7.8717,-7.8791,-7.8974,-7.898,-7.9061,-7.9089,-7.9111,-7.9131,-7.923,-7.9266,-7.888,-7.888,-7.8879,0,0,-7.8288,-7.8313,-7.8373,-7.847,-7.8499,-7.8594,-7.8469,-7.8574,-7.8643,-7.8545,-7.8682,-7.8693,-7.8735,-7.89,-7.8972,-7.8915,-7.9239,-7.9132,-7.915,-7.9158,-7.925,-7.9287,-7.9319,-7.8891,-7.8889,-7.8887,0,0,-7.8529,-7.8557,-7.8687,-7.872,-7.8767,-7.8758,-7.879,-7.8821,-7.8825,-7.8962,-7.8891,-7.8971,-7.911,-7.9144,-7.9179,-7.9435,-7.9376,-7.946,-7.9605,-7.9701,-7.9732,-7.9758,-7.985,-7.9883,-7.9479,-7.948,-7.948,0,-7.8654,-7.8796,-7.8759,-7.8871,-7.8915,-7.8833,-7.8964,-7.8997,-7.9065,-7.9097,-7.9032,-7.9206,-7.9229,-7.94,-7.9463,-7.9494,-7.9527,-7.9456,-7.9731,-7.9757,-7.9781,-7.9868,-7.9903,-7.949,-7.9489,-7.9487,-7.9487,0,-7.8947,-7.9047,-7.9145,-7.9217,-7.9272,-7.9392,-7.9373,-7.9433,-7.9399,-7.9397,-7.9536,-7.9561,-7.9639,-7.9677,-7.9645,-7.9845,-7.9808,-7.9738,-7.9622,-7.9829,-7.991,-7.9943,-7.9504,-7.95,-7.9497,-7.9495,0,0,-7.9277,-7.9328,-7.9365,-7.9397,-7.9443,-7.9519,-7.9635,-7.9713,-7.9766,-7.9815,-7.9911,-8.0031,-7.9967,-8.0008,-7.9978,-8.0063,-8.0264,-7.9982,-7.9982,-8.0034,-8.0486,-8.054,-8.0579,-8.0225,-8.0231,-8.0236,-8.0483,0,-7.9519,-7.9723,-7.9694,-7.9889,-7.9981,-7.9904,-8.0005,-8.0044,-8.0045,-8.0121,-8.0121,-8.0207,-8.0116,-8.014,-8.022,-8.0223,-8.0354,-8.0204,-8.0313,-8.0318,-8.0306,-8.0621,-8.0677,-8.0909,-8.0514,-8.052,-8.0523,0,-7.9828,-7.9893,-8.0098,-8.0132,-8.0169,-8.0261,-8.0331,-8.0405,-8.0447,-8.0441,-8.0488,-8.0443,-8.0557,-8.044,-8.0597,-8.0496,-8.0539,-8.0547,-8.0555,-8.0564,-8.0434,-8.0639,-8.0982,-8.1017,-8.0573,-8.0569,-8.0565,0,-8.005,-8.0187,-8.0328,-8.0357,-8.04,-8.0466,-8.0487,-8.0522,-8.0572,-8.0632,-8.0663,-8.0735,-8.0775,-8.0831,-8.0807,-8.0723,-8.0969,-8.0849,-8.0967,-8.0968,-8.1023,-8.102,-8.1378,-8.1049,-8.1049,-8.1048,-8.1047,0,-8.0323,-8.0452,-8.0429,-8.0516,-8.0657,-8.0622,-8.0763,-8.0773,-8.0806,-8.0893,-8.083,-8.0912,-8.0874,-8.0953,-8.0934,-8.1068,-8.1085,-8.1083,-8.1077,-8.109,-8.1091,-8.1118,-8.1101,-8.1057,-8.1055,-8.1053,-8.1052,0,-8.0595,-8.0585,-8.0733,-8.0762,-8.0772,-8.0876,-8.0899,-8.098,-8.0976,-8.1087,-8.111,-8.1104,-8.1194,-8.1175,-8.1273,-8.126,-8.1428,-8.1401,-8.1415,-8.1409,-8.1528,-8.1518,-8.1917,-8.1968,-8.1606,-8.1609,-8.1612,0,-8.0771,-8.0869,-8.0909,-8.0964,-8.099,-8.1078,-8.1129,-8.1098,-8.1153,-8.1209,-8.1283,-8.1367,-8.1434,-8.1581,-8.1584,-8.1658,-8.1633,-8.1768,-8.1644,-8.1654,-8.1636,-8.1631,-8.1641,-8.1793,-8.1797,-8.18,-8.1803,0,-8.1084,-8.1075,-8.1151,-8.1228,-8.1291,-8.1348,-8.1399,-8.1446,-8.1419,-8.1484,-8.1577,-8.1628,-8.173,-8.1814,-8.1884,-8.1902,-8.1849,-8.1842,-8.1873,-8.1888,-8.1893,-8.1893,-8.1483,-8.1833,-8.183,-8.1828,-8.1826,-8.1825,-8.1314,-8.1398,-8.144,-8.1528,-8.1563,-8.1613,-8.1691,-8.1698,-8.1775,-8.1857,-8.1833,-8.1939,-8.1978,-8.2066,-8.2093,-8.2174,-8.2123,-8.2168,-8.218,-8.2192,-8.2207,-8.188,-8.2186,-8.2185,-8.2184,-8.2183,-8.2183,0,-8.1625,-8.1649,-8.173,-8.1805,-8.1874,-8.1819,-8.1873,-8.1934,-8.2029,-8.2071,-8.2138,-8.2245,-8.2327,-8.2337,-8.2414,-8.2477,-8.2455,-8.2499,-8.2494,-8.2499,-8.2247,-8.2213,-8.2516,-8.2516,-8.2516,-8.2516,-8.2516,-8.2515,-8.1795,-8.1935,-8.193,-8.2087,-8.2108,-8.2213,-8.2249,-8.2294,-8.2328,-8.2451,-8.252,-8.2526,-8.2556,-8.2635,-8.2707,-8.2708,-8.274,-8.2794,-8.2785,-8.255,-8.2517,-8.2485,-8.2453,-8.2801,-8.2801,-8.303,-8.3032,-8.3034]}]]